TimeEST,TemperatureF,Dew PointF,Humidity,Sea Level PressureIn,VisibilityMPH,Wind Direction,Wind SpeedMPH,Gust SpeedMPH,PrecipitationIn,Events,Conditions,WindDirDegrees,DateUTC
12:15 AM,68.0,66.2,94,29.89,10.0,South,8.1,17.3,N/A,,Clear,190,2013-02-13 05:15:00
12:35 AM,68.0,66.2,94,29.89,10.0,SSW,10.4,-,N/A,,Clear,200,2013-02-13 05:35:00
12:55 AM,68.0,66.2,94,29.89,9.0,South,8.1,-,N/A,,Mostly Cloudy,190,2013-02-13 05:55:00
1:15 AM,68.0,66.2,94,29.88,9.0,South,9.2,16.1,N/A,,Mostly Cloudy,190,2013-02-13 06:15:00
1:35 AM,69.8,66.2,88,29.87,9.0,South,10.4,16.1,N/A,,Mostly Cloudy,180,2013-02-13 06:35:00
1:55 AM,69.8,66.2,88,29.86,9.0,South,9.2,-,N/A,,Mostly Cloudy,180,2013-02-13 06:55:00
2:15 AM,69.8,66.2,88,29.86,9.0,South,9.2,17.3,N/A,,Overcast,180,2013-02-13 07:15:00
2:35 AM,69.8,68.0,94,29.85,8.0,South,8.1,-,N/A,,Mostly Cloudy,190,2013-02-13 07:35:00
2:55 AM,71.6,68.0,88,29.84,9.0,South,9.2,-,N/A,,Mostly Cloudy,180,2013-02-13 07:55:00
3:15 AM,71.6,68.0,88,29.84,8.0,South,9.2,17.3,N/A,,Mostly Cloudy,190,2013-02-13 08:15:00
3:35 AM,71.6,68.0,88,29.84,7.0,South,8.1,-,N/A,,Mostly Cloudy,190,2013-02-13 08:35:00
3:55 AM,71.6,68.0,88,29.84,8.0,SSW,10.4,19.6,N/A,,Mostly Cloudy,200,2013-02-13 08:55:00
4:15 AM,73.4,68.0,83,29.83,7.0,SSW,12.7,19.6,N/A,,Mostly Cloudy,200,2013-02-13 09:15:00
4:35 AM,71.6,68.0,88,29.83,8.0,SSW,15.0,-,N/A,,Partly Cloudy,200,2013-02-13 09:35:00
4:55 AM,71.6,68.0,88,29.83,7.0,SSW,13.8,21.9,N/A,,Scattered Clouds,200,2013-02-13 09:55:00
5:15 AM,73.4,68.0,83,29.82,7.0,SSW,15.0,23.0,N/A,,Scattered Clouds,200,2013-02-13 10:15:00
5:35 AM,73.4,68.0,83,29.83,9.0,SSW,15.0,19.6,N/A,,Mostly Cloudy,210,2013-02-13 10:35:00
5:55 AM,73.4,68.0,83,29.83,9.0,SW,12.7,20.7,N/A,,Overcast,220,2013-02-13 10:55:00
6:15 AM,73.4,68.0,83,29.83,8.0,SSW,11.5,19.6,N/A,,Mostly Cloudy,210,2013-02-13 11:15:00
6:35 AM,73.4,68.0,83,29.82,8.0,SSW,13.8,25.3,N/A,,Scattered Clouds,200,2013-02-13 11:35:00
6:50 AM,73.4,68.0,83,29.83,7.0,SW,17.3,-,N/A,,Mostly Cloudy,220,2013-02-13 11:50:00
9:20 AM,73.4,69.8,88,29.87,2.5,WSW,11.5,-,N/A,Rain,Light Rain,240,2013-02-13 14:20:00
9:50 AM,71.6,71.6,100,29.88,2.5,WSW,9.2,-,N/A,Rain,Light Rain,240,2013-02-13 14:50:00
10:05 AM,69.8,69.8,100,29.88,-9999.0,WSW,9.2,-,N/A,Rain-Thunderstorm,Light Thunderstorms and Rain,240,2013-02-13 15:05:00
10:21 AM,69.8,69.8,100,29.88,7.0,WSW,11.5,-,N/A,,Mostly Cloudy,240,2013-02-13 15:21:00
10:50 AM,73.4,71.6,94,29.88,7.0,SW,8.1,-,N/A,,Mostly Cloudy,230,2013-02-13 15:50:00
12:50 PM,73.4,71.6,94,29.85,3.0,WSW,11.5,18.4,N/A,Rain,Light Rain,240,2013-02-13 17:50:00
1:50 PM,71.6,69.8,94,29.83,6.0,WSW,6.9,17.3,N/A,Rain,Light Rain,240,2013-02-13 18:50:00
2:50 PM,71.6,68.0,88,29.82,10.0,SW,9.2,-,N/A,,Mostly Cloudy,230,2013-02-13 19:50:00
3:50 PM,71.6,66.2,83,29.82,10.0,SW,11.5,-,N/A,,Mostly Cloudy,230,2013-02-13 20:50:00
4:50 PM,69.8,64.4,83,29.84,10.0,WSW,11.5,-,N/A,,Mostly Cloudy,250,2013-02-13 21:50:00
5:50 PM,69.8,66.2,88,29.86,7.0,West,6.9,-,N/A,,Mostly Cloudy,260,2013-02-13 22:50:00
6:50 PM,68.0,62.6,83,29.88,7.0,WNW,10.4,-,N/A,,Mostly Cloudy,300,2013-02-13 23:50:00
7:50 PM,66.2,50.0,56,29.89,7.0,WNW,6.9,-,N/A,,Mostly Cloudy,300,2013-02-14 00:50:00
8:15 PM,66.2,50.0,56,29.91,10.0,West,3.5,-,N/A,,Partly Cloudy,270,2013-02-14 01:15:00
8:35 PM,64.4,50.0,59,29.92,10.0,WNW,5.8,-,N/A,,Mostly Cloudy,290,2013-02-14 01:35:00
8:55 PM,66.2,48.2,52,29.92,10.0,West,5.8,-,N/A,,Mostly Cloudy,280,2013-02-14 01:55:00
9:15 PM,66.2,48.2,52,29.93,10.0,SW,4.6,-,N/A,,Mostly Cloudy,230,2013-02-14 02:15:00
9:35 PM,64.4,48.2,56,29.93,10.0,WSW,3.5,-,N/A,,Mostly Cloudy,250,2013-02-14 02:35:00
9:55 PM,62.6,51.8,68,29.94,8.0,SW,5.8,-,N/A,Rain-Thunderstorm,Light Rain,230,2013-02-14 02:55:00
10:15 PM,57.2,55.4,94,29.93,5.0,Calm,Calm,-,0.03,Rain-Thunderstorm,Light Thunderstorms and Rain,0,2013-02-14 03:15:00
10:35 PM,59.0,53.6,82,29.93,10.0,SSW,6.9,-,0.03,,Mostly Cloudy,210,2013-02-14 03:35:00
10:55 PM,59.0,53.6,82,29.94,5.0,South,5.8,-,0.04,Rain,Light Rain,190,2013-02-14 03:55:00
11:15 PM,57.2,55.4,94,29.95,10.0,SSW,4.6,-,N/A,,Mostly Cloudy,200,2013-02-14 04:15:00
11:35 PM,57.2,55.4,94,29.94,5.0,SSW,4.6,-,0.01,Rain,Light Rain,210,2013-02-14 04:35:00
11:55 PM,57.2,55.4,94,29.94,5.0,SW,8.1,-,0.02,Rain,Light Rain,230,2013-02-14 04:55:00